,,,PA_Meas_PMT16A,,PR_Meas_QMR101_102,,RH_Meas_QMH101,,SR_Meas_QMS101,,TA_Meas_QMH101,,GenWind,,GenWind,
date,time,status,PA,status,PR,status,RH,status,SR,status,TA,status,DirAvg,status,SpdAvg,
2011-03-12, 00:00:05,VALID,1003.05,VALID,0,INVALID,163.67,VALID,0,VALID,24.1707,VALID,1,VALID,0.00351562,
2011-03-12, 00:01:05,VALID,1003.03,VALID,0,INVALID,163.708,VALID,0,VALID,24.1494,VALID,1,VALID,0,
2011-03-12, 00:02:05,VALID,1003.03,VALID,0,INVALID,163.701,VALID,0,VALID,24.1494,VALID,1,VALID,0,
2011-03-12, 00:03:05,VALID,1002.98,VALID,0,INVALID,163.678,VALID,0,VALID,24.1689,VALID,1,VALID,0,
2011-03-12, 00:04:05,VALID,1003.04,VALID,0,INVALID,163.693,VALID,0,VALID,24.1689,VALID,1,VALID,0,
2011-03-12, 00:05:05,VALID,1003.03,VALID,0,INVALID,163.701,VALID,0,VALID,24.1884,VALID,1,VALID,0,
2011-03-12, 00:06:05,VALID,1003.04,VALID,0,INVALID,163.693,VALID,0,VALID,24.1689,VALID,1,VALID,0,
2011-03-12, 00:07:05,VALID,1003.03,VALID,0,INVALID,163.701,VALID,0,VALID,24.1902,VALID,1,VALID,0,
2011-03-12, 00:08:05,VALID,1003.02,VALID,0,INVALID,163.693,VALID,0.100563,VALID,24.1707,VALID,1,VALID,0,
2011-03-12, 00:09:05,VALID,1003.03,VALID,0,INVALID,163.708,VALID,0,VALID,24.1494,VALID,1,VALID,0,
2011-03-12, 00:10:05,VALID,1003.01,VALID,0,INVALID,163.716,VALID,0,VALID,24.13,VALID,1,VALID,0,
2011-03-12, 00:11:05,VALID,1003.02,VALID,0,INVALID,163.701,VALID,0,VALID,24.13,VALID,1,VALID,0,
2011-03-12, 00:12:05,VALID,1002.95,VALID,0,INVALID,163.708,VALID,0,VALID,24.1105,VALID,1,VALID,0,
2011-03-12, 00:13:05,VALID,1002.96,VALID,0,INVALID,163.693,VALID,0,VALID,24.1105,VALID,1,VALID,0,
2011-03-12, 00:14:05,VALID,1002.94,VALID,0,INVALID,163.723,VALID,0,VALID,24.1105,VALID,1,VALID,0,
2011-03-12, 00:15:05,VALID,1002.95,VALID,0,INVALID,163.708,VALID,0,VALID,24.091,VALID,1,VALID,0.471875,
2011-03-12, 00:16:05,VALID,1002.92,VALID,0,INVALID,163.685,VALID,0,VALID,24.0308,VALID,1,VALID,0.564844,
2011-03-12, 00:17:05,VALID,1002.92,VALID,0,INVALID,163.701,VALID,0,VALID,24.0345,VALID,1,VALID,0.218359,
2011-03-12, 00:18:05,VALID,1002.91,VALID,0,INVALID,163.701,VALID,0,VALID,23.9937,VALID,1,VALID,0.245703,
2011-03-12, 00:19:05,VALID,1002.92,VALID,0,INVALID,163.708,VALID,0,VALID,24.015,VALID,1,VALID,0.218359,
2011-03-12, 00:20:05,VALID,1002.88,VALID,0,INVALID,163.693,VALID,0,VALID,23.9742,VALID,1,VALID,0,
2011-03-12, 00:21:05,VALID,1002.9,VALID,0,INVALID,163.723,VALID,0,VALID,24.015,VALID,1,VALID,0,
2011-03-12, 00:22:05,VALID,1002.91,VALID,0,INVALID,163.685,VALID,0,VALID,23.9937,VALID,1,VALID,0,
2011-03-12, 00:23:05,VALID,1002.91,VALID,0,INVALID,163.701,VALID,0,VALID,23.9937,VALID,1,VALID,0.0046875,
2011-03-12, 00:24:05,VALID,1002.9,VALID,0,INVALID,163.708,VALID,0,VALID,23.9548,VALID,1,VALID,0.395312,
2011-03-12, 00:25:05,VALID,1002.89,VALID,0,INVALID,163.723,VALID,0,VALID,23.9566,VALID,1,VALID,0.214453,
2011-03-12, 00:26:05,VALID,1002.86,VALID,0,INVALID,163.716,VALID,0,VALID,23.9566,VALID,1,VALID,0.177734,
2011-03-12, 00:27:05,VALID,1002.88,VALID,0,INVALID,163.716,VALID,0,VALID,23.9371,VALID,1,VALID,0.270312,
2011-03-12, 00:28:05,VALID,1002.87,VALID,0,INVALID,163.716,VALID,0,VALID,23.8964,VALID,1,VALID,0.144922,
2011-03-12, 00:29:05,VALID,1002.86,VALID,0,INVALID,163.716,VALID,0,VALID,23.9177,VALID,1,VALID,0,
2011-03-12, 00:30:05,VALID,1002.87,VALID,0,INVALID,163.701,VALID,0,VALID,23.8769,VALID,1,VALID,0,
2011-03-12, 00:31:05,VALID,1002.86,VALID,0,INVALID,163.708,VALID,0,VALID,23.8575,VALID,1,VALID,0,
2011-03-12, 00:32:05,VALID,1002.9,VALID,0,INVALID,163.723,VALID,0,VALID,23.8575,VALID,1,VALID,0,
2011-03-12, 00:33:05,VALID,1002.88,VALID,0,INVALID,163.701,VALID,0,VALID,23.8769,VALID,1,VALID,0,
2011-03-12, 00:34:05,VALID,1002.9,VALID,0,INVALID,163.716,VALID,0,VALID,23.8575,VALID,1,VALID,0,
2011-03-12, 00:35:05,VALID,1002.91,VALID,0,INVALID,163.723,VALID,0,VALID,23.8575,VALID,1,VALID,0.0375,
2011-03-12, 00:36:05,VALID,1002.88,VALID,0,INVALID,163.731,VALID,0,VALID,23.838,VALID,1,VALID,0.18125,
2011-03-12, 00:37:05,VALID,1002.88,VALID,0,INVALID,163.731,VALID,0,VALID,23.8611,VALID,1,VALID,0.190625,
2011-03-12, 00:38:05,VALID,1002.89,VALID,0,INVALID,163.701,VALID,0,VALID,23.7991,VALID,1,VALID,0.364062,
2011-03-12, 00:39:05,VALID,1002.84,VALID,0,INVALID,163.731,VALID,0,VALID,23.7991,VALID,1,VALID,0.542578,
2011-03-12, 00:40:05,VALID,1002.86,VALID,0,INVALID,163.716,VALID,0,VALID,23.7814,VALID,1,VALID,0.494531,
2011-03-12, 00:41:05,VALID,1002.83,VALID,0,INVALID,163.746,VALID,0,VALID,23.7425,VALID,1,VALID,0.400781,
2011-03-12, 00:42:05,VALID,1002.8,VALID,0,INVALID,163.731,VALID,0,VALID,23.723,VALID,1,VALID,0.489844,
2011-03-12, 00:43:05,VALID,1002.79,VALID,0,INVALID,163.731,VALID,0,VALID,23.7017,VALID,1,VALID,0.541016,
2011-03-12, 00:44:05,VALID,1002.76,VALID,0,INVALID,163.723,VALID,0,VALID,23.6823,VALID,1,VALID,0.607422,
2011-03-12, 00:45:05,VALID,1002.73,VALID,0,INVALID,163.731,VALID,0,VALID,23.6628,VALID,1,VALID,0.449609,
2011-03-12, 00:46:05,VALID,1002.7,VALID,0,INVALID,163.731,VALID,0,VALID,23.6434,VALID,1,VALID,0.458594,
2011-03-12, 00:47:05,VALID,1002.67,VALID,0,INVALID,163.716,VALID,0,VALID,23.6239,VALID,1,VALID,0.667188,
2011-03-12, 00:48:05,VALID,1002.64,VALID,0,INVALID,163.723,VALID,0,VALID,23.6434,VALID,1,VALID,0.787891,
2011-03-12, 00:49:05,VALID,1002.63,VALID,0,INVALID,163.746,VALID,0,VALID,23.6452,VALID,1,VALID,0.775781,
2011-03-12, 00:50:05,VALID,1002.57,VALID,0,INVALID,163.716,VALID,0,VALID,23.6239,VALID,1,VALID,0.851172,
2011-03-12, 00:51:05,VALID,1002.59,VALID,0,INVALID,163.716,VALID,0,VALID,23.6646,VALID,5,VALID,0.982813,
2011-03-12, 00:52:05,VALID,1002.57,VALID,0,INVALID,163.739,VALID,0,VALID,23.6434,VALID,5,VALID,0.85,
2011-03-12, 00:53:05,VALID,1002.57,VALID,0,INVALID,163.723,VALID,0,VALID,23.6452,VALID,5,VALID,0.507031,
2011-03-12, 00:54:05,VALID,1002.59,VALID,0,INVALID,163.754,VALID,0,VALID,23.6044,VALID,4,VALID,0.402344,
2011-03-12, 00:55:05,VALID,1002.61,VALID,0,INVALID,163.731,VALID,0,VALID,23.5832,VALID,5,VALID,0.15625,
2011-03-12, 00:56:05,VALID,1002.59,VALID,0,INVALID,163.746,VALID,0,VALID,23.5832,VALID,5,VALID,0.00117188,
2011-03-12, 00:57:05,VALID,1002.6,VALID,0,INVALID,163.731,VALID,0,VALID,23.6044,VALID,7,VALID,0.397656,
2011-03-12, 00:58:05,VALID,1002.58,VALID,0,INVALID,163.754,VALID,0,VALID,23.6646,VALID,20,VALID,0.457812,
2011-03-12, 00:59:05,VALID,1002.61,VALID,0,INVALID,163.739,VALID,0,VALID,23.6823,VALID,20,VALID,0.374609,
2011-03-12, 01:00:04,VALID,1002.58,VALID,0,INVALID,163.731,VALID,0,VALID,23.7017,VALID,21,VALID,0.389844,
2011-03-12, 01:01:04,VALID,1002.57,VALID,0,INVALID,163.708,VALID,0,VALID,23.7601,VALID,21,VALID,0.319531,
2011-03-12, 01:02:04,VALID,1002.57,VALID,0,INVALID,163.723,VALID,0,VALID,23.7796,VALID,21,VALID,0.344531,
2011-03-12, 01:03:04,VALID,1002.53,VALID,0,INVALID,163.731,VALID,0,VALID,23.7796,VALID,21,VALID,0.146094,
2011-03-12, 01:04:04,VALID,1002.49,VALID,0,INVALID,163.723,VALID,0,VALID,23.7973,VALID,21,VALID,0.166016,
2011-03-12, 01:05:04,VALID,1002.51,VALID,0,INVALID,163.716,VALID,0,VALID,23.8185,VALID,21,VALID,0.282422,
2011-03-12, 01:06:04,VALID,1002.51,VALID,0,INVALID,163.716,VALID,0,VALID,23.8185,VALID,21,VALID,0,
2011-03-12, 01:07:04,VALID,1002.51,VALID,0,INVALID,163.731,VALID,0,VALID,23.7991,VALID,21,VALID,0,
2011-03-12, 01:08:04,VALID,1002.49,VALID,0,INVALID,163.708,VALID,0,VALID,23.7991,VALID,21,VALID,0.0582031,
2011-03-12, 01:09:04,VALID,1002.49,VALID,0,INVALID,163.723,VALID,0,VALID,23.7991,VALID,21,VALID,0.183984,
2011-03-12, 01:10:04,VALID,1002.5,VALID,0,INVALID,163.716,VALID,0,VALID,23.7991,VALID,21,VALID,0.123047,
2011-03-12, 01:11:04,VALID,1002.49,VALID,0,INVALID,163.723,VALID,0,VALID,23.7991,VALID,21,VALID,0.197656,
2011-03-12, 01:12:04,VALID,1002.45,VALID,0,INVALID,163.716,VALID,0,VALID,23.7991,VALID,21,VALID,0.422266,
2011-03-12, 01:13:04,VALID,1002.4,VALID,0,INVALID,163.701,VALID,0,VALID,23.7796,VALID,21,VALID,0.291797,
2011-03-12, 01:14:04,VALID,1002.39,VALID,0,INVALID,163.723,VALID,0,VALID,23.7796,VALID,21,VALID,0.200781,
2011-03-12, 01:15:04,VALID,1002.37,VALID,0,INVALID,163.708,VALID,0,VALID,23.7796,VALID,21,VALID,0.326562,
2011-03-12, 01:16:04,VALID,1002.32,VALID,0,INVALID,163.723,VALID,0,VALID,23.7814,VALID,21,VALID,0.649219,
2011-03-12, 01:17:04,VALID,1002.3,VALID,0,INVALID,163.708,VALID,0,VALID,23.7407,VALID,21,VALID,0.476563,
2011-03-12, 01:18:04,VALID,1002.29,VALID,0,INVALID,163.723,VALID,0,VALID,23.7194,VALID,21,VALID,0.235547,
2011-03-12, 01:19:04,VALID,1002.32,VALID,0,INVALID,163.716,VALID,0,VALID,23.7601,VALID,21,VALID,0.157422,
2011-03-12, 01:20:04,VALID,1002.32,VALID,0,INVALID,163.708,VALID,0,VALID,23.7796,VALID,21,VALID,0.105078,
2011-03-12, 01:21:04,VALID,1002.3,VALID,0,INVALID,163.716,VALID,0,VALID,23.7991,VALID,21,VALID,0.162891,
2011-03-12, 01:22:04,VALID,1002.29,VALID,0,INVALID,163.754,VALID,0,VALID,23.7991,VALID,21,VALID,0.184375,
2011-03-12, 01:23:04,VALID,1002.26,VALID,0,INVALID,163.723,VALID,0,VALID,23.8185,VALID,21,VALID,0.33125,
2011-03-12, 01:24:04,VALID,1002.26,VALID,0,INVALID,163.716,VALID,0,VALID,23.8185,VALID,21,VALID,0.225781,
2011-03-12, 01:25:04,VALID,1002.24,VALID,0,INVALID,163.701,VALID,0,VALID,23.838,VALID,21,VALID,0.332812,
2011-03-12, 01:26:04,VALID,1002.21,VALID,0,INVALID,163.693,VALID,0,VALID,23.838,VALID,35,VALID,0.370313,
2011-03-12, 01:27:04,VALID,1002.21,VALID,0,INVALID,163.723,VALID,0,VALID,23.838,VALID,35,VALID,0.357031,
2011-03-12, 01:28:04,VALID,1002.19,VALID,0,INVALID,163.716,VALID,0,VALID,23.8575,VALID,35,VALID,0.321094,
2011-03-12, 01:29:04,VALID,1002.16,VALID,0,INVALID,163.716,VALID,0,VALID,23.8769,VALID,35,VALID,0.177344,
2011-03-12, 01:30:04,VALID,1002.17,VALID,0,INVALID,163.731,VALID,0,VALID,23.8751,VALID,35,VALID,0.332031,
2011-03-12, 01:31:04,VALID,1002.13,VALID,0,INVALID,163.701,VALID,0,VALID,23.8964,VALID,71,VALID,0.525391,
2011-03-12, 01:32:04,VALID,1002.13,VALID,0,INVALID,163.754,VALID,0,VALID,23.8964,VALID,71,VALID,0.382422,
2011-03-12, 01:33:04,VALID,1002.11,VALID,0,INVALID,163.731,VALID,0,VALID,23.8769,VALID,71,VALID,0.297266,
2011-03-12, 01:34:04,VALID,1002.1,VALID,0,INVALID,163.723,VALID,0,VALID,23.8556,VALID,71,VALID,0.0242187,
2011-03-12, 01:35:04,VALID,1002.09,VALID,0,INVALID,163.693,VALID,0.100563,VALID,23.8769,VALID,71,VALID,0,
2011-03-12, 01:36:04,VALID,1002.06,VALID,0,INVALID,163.723,VALID,0,VALID,23.8362,VALID,71,VALID,0,
2011-03-12, 01:37:04,VALID,1002.09,VALID,0,INVALID,163.716,VALID,0,VALID,23.8362,VALID,71,VALID,0,
2011-03-12, 01:38:04,VALID,1002.06,VALID,0,INVALID,163.723,VALID,0,VALID,23.838,VALID,71,VALID,0,
2011-03-12, 01:39:04,VALID,1002.04,VALID,0,INVALID,163.731,VALID,0,VALID,23.7955,VALID,71,VALID,0,
2011-03-12, 01:40:04,VALID,1002.02,VALID,0,INVALID,163.731,VALID,0,VALID,23.8167,VALID,71,VALID,0,
2011-03-12, 01:41:04,VALID,1002,VALID,0,INVALID,163.716,VALID,0,VALID,23.8185,VALID,71,VALID,0,
2011-03-12, 01:42:04,VALID,1001.97,VALID,0,INVALID,163.723,VALID,0,VALID,23.8185,VALID,71,VALID,0,
2011-03-12, 01:43:04,VALID,1002,VALID,0,INVALID,163.746,VALID,0,VALID,23.8185,VALID,71,VALID,0,
2011-03-12, 01:44:04,VALID,1001.99,VALID,0,INVALID,163.723,VALID,0,VALID,23.838,VALID,71,VALID,0,
2011-03-12, 01:45:04,VALID,1001.95,VALID,0,INVALID,163.739,VALID,0,VALID,23.8167,VALID,71,VALID,0,
2011-03-12, 01:46:04,VALID,1001.95,VALID,0,INVALID,163.731,VALID,0,VALID,23.8185,VALID,71,VALID,0,
2011-03-12, 01:47:04,VALID,1001.94,VALID,0,INVALID,163.723,VALID,0.100563,VALID,23.838,VALID,71,VALID,0,
2011-03-12, 01:48:04,VALID,1001.93,VALID,0,INVALID,163.708,VALID,0.100563,VALID,23.8167,VALID,71,VALID,0,
2011-03-12, 01:49:04,VALID,1001.9,VALID,0,INVALID,163.708,VALID,0,VALID,23.838,VALID,71,VALID,0,
2011-03-12, 01:50:04,VALID,1001.93,VALID,0,INVALID,163.716,VALID,0,VALID,23.838,VALID,71,VALID,0,
2011-03-12, 01:51:04,VALID,1001.91,VALID,0,INVALID,163.708,VALID,0,VALID,23.8185,VALID,71,VALID,0.421484,
2011-03-12, 01:52:04,VALID,1001.9,VALID,0,INVALID,163.701,VALID,0,VALID,23.8185,VALID,71,VALID,0.2625,
2011-03-12, 01:53:04,VALID,1001.89,VALID,0,INVALID,163.701,VALID,0.100563,VALID,23.8185,VALID,71,VALID,0.196094,
2011-03-12, 01:54:04,VALID,1001.9,VALID,0,INVALID,163.723,VALID,0.100563,VALID,23.7991,VALID,71,VALID,0.0523437,
2011-03-12, 01:55:04,VALID,1001.9,VALID,0,INVALID,163.716,VALID,0.100563,VALID,23.7778,VALID,71,VALID,0.233984,
2011-03-12, 01:56:04,VALID,1001.89,VALID,0,INVALID,163.708,VALID,0.100563,VALID,23.8009,VALID,71,VALID,0.219141,
2011-03-12, 01:57:04,VALID,1001.89,VALID,0,INVALID,163.708,VALID,0,VALID,23.7814,VALID,71,VALID,0.239844,
2011-03-12, 01:58:04,VALID,1001.93,VALID,0,INVALID,163.723,VALID,0,VALID,23.7796,VALID,71,VALID,0.309766,
2011-03-12, 01:59:04,VALID,1001.94,VALID,0,INVALID,163.731,VALID,0,VALID,23.7796,VALID,71,VALID,0.351953,
2011-03-12, 02:00:04,VALID,1001.93,VALID,0,INVALID,163.723,VALID,0,VALID,23.7583,VALID,71,VALID,0.332031,
2011-03-12, 02:01:04,VALID,1001.96,VALID,0,INVALID,163.708,VALID,0.100563,VALID,23.7796,VALID,71,VALID,0.248828,
2011-03-12, 02:02:04,VALID,1001.92,VALID,0,INVALID,163.762,VALID,0,VALID,23.7583,VALID,71,VALID,0.3375,
2011-03-12, 02:03:04,VALID,1001.94,VALID,0,INVALID,163.731,VALID,0,VALID,23.7796,VALID,71,VALID,0.0832031,
2011-03-12, 02:04:04,VALID,1001.92,VALID,0,INVALID,163.716,VALID,0,VALID,23.7796,VALID,71,VALID,0.420312,
2011-03-12, 02:05:04,VALID,1001.9,VALID,0,INVALID,163.739,VALID,0.100563,VALID,23.7601,VALID,71,VALID,0.441406,
2011-03-12, 02:06:04,VALID,1001.92,VALID,0,INVALID,163.746,VALID,0.100563,VALID,23.7583,VALID,71,VALID,0.294141,
2011-03-12, 02:07:04,VALID,1001.88,VALID,0,INVALID,163.716,VALID,0.100563,VALID,23.7601,VALID,71,VALID,0.380469,
2011-03-12, 02:08:04,VALID,1001.9,VALID,0,INVALID,163.716,VALID,0.100563,VALID,23.7601,VALID,71,VALID,0.134766,
2011-03-12, 02:09:04,VALID,1001.89,VALID,0,INVALID,163.746,VALID,0,VALID,23.7194,VALID,71,VALID,0.257031,
2011-03-12, 02:10:04,VALID,1001.87,VALID,0,INVALID,163.739,VALID,0,VALID,23.7601,VALID,71,VALID,0.31875,
2011-03-12, 02:11:04,VALID,1001.89,VALID,0,INVALID,163.701,VALID,0,VALID,23.7601,VALID,71,VALID,0.314844,
2011-03-12, 02:12:04,VALID,1001.89,VALID,0,INVALID,163.731,VALID,0,VALID,23.7389,VALID,71,VALID,0.256641,
2011-03-12, 02:13:04,VALID,1001.87,VALID,0,INVALID,163.723,VALID,0,VALID,23.7778,VALID,71,VALID,0.0949219,
2011-03-12, 02:14:04,VALID,1001.87,VALID,0,INVALID,163.731,VALID,0,VALID,23.7991,VALID,71,VALID,0.416797,
2011-03-12, 02:15:04,VALID,1001.85,VALID,0,INVALID,163.746,VALID,0,VALID,23.7796,VALID,71,VALID,0.349609,
2011-03-12, 02:16:04,VALID,1001.85,VALID,0,INVALID,163.739,VALID,0,VALID,23.7991,VALID,71,VALID,0.442187,
2011-03-12, 02:17:04,VALID,1001.85,VALID,0,INVALID,163.746,VALID,0.100563,VALID,23.7973,VALID,70,VALID,0.530078,
2011-03-12, 02:18:04,VALID,1001.83,VALID,0,INVALID,163.708,VALID,0.100563,VALID,23.7973,VALID,70,VALID,0.340625,
2011-03-12, 02:19:04,VALID,1001.84,VALID,0,INVALID,163.731,VALID,0,VALID,23.838,VALID,62,VALID,0.307813,
2011-03-12, 02:20:04,VALID,1001.81,VALID,0,INVALID,163.708,VALID,0,VALID,23.8769,VALID,9,VALID,0.424609,
2011-03-12, 02:21:04,VALID,1001.79,VALID,0,INVALID,163.723,VALID,0.100563,VALID,23.8964,VALID,9,VALID,0.576563,
2011-03-12, 02:22:04,VALID,1001.79,VALID,0,INVALID,163.708,VALID,0,VALID,23.8946,VALID,9,VALID,0.607031,
2011-03-12, 02:23:04,VALID,1001.78,VALID,0,INVALID,163.716,VALID,0,VALID,23.9353,VALID,9,VALID,0.667188,
2011-03-12, 02:24:04,VALID,1001.78,VALID,0,INVALID,163.693,VALID,0,VALID,23.9548,VALID,9,VALID,0.542578,
2011-03-12, 02:25:04,VALID,1001.76,VALID,0,INVALID,163.701,VALID,0,VALID,23.9353,VALID,8,VALID,0.598437,
2011-03-12, 02:26:04,VALID,1001.74,VALID,0,INVALID,163.731,VALID,0.100563,VALID,23.9353,VALID,8,VALID,0.477734,
2011-03-12, 02:27:04,VALID,1001.73,VALID,0,INVALID,163.716,VALID,0,VALID,23.9548,VALID,8,VALID,0.464844,
2011-03-12, 02:28:04,VALID,1001.71,VALID,0,INVALID,163.731,VALID,0,VALID,23.9548,VALID,8,VALID,0.533594,
2011-03-12, 02:29:04,VALID,1001.72,VALID,0,INVALID,163.723,VALID,0,VALID,23.9761,VALID,8,VALID,0.423438,
2011-03-12, 02:30:04,VALID,1001.74,VALID,0,INVALID,163.678,VALID,0,VALID,23.9955,VALID,8,VALID,0.427734,
2011-03-12, 02:31:04,VALID,1001.71,VALID,0,INVALID,163.708,VALID,0,VALID,24.015,VALID,8,VALID,0.328516,
2011-03-12, 02:32:04,VALID,1001.75,VALID,0,INVALID,163.716,VALID,0,VALID,23.9937,VALID,8,VALID,0.5125,
2011-03-12, 02:33:04,VALID,1001.73,VALID,0,INVALID,163.708,VALID,0,VALID,24.0539,VALID,8,VALID,0.335547,
2011-03-12, 02:34:04,VALID,1001.77,VALID,0,INVALID,163.708,VALID,0,VALID,24.0539,VALID,8,VALID,0.357031,
2011-03-12, 02:35:04,VALID,1001.75,VALID,0,INVALID,163.701,VALID,0,VALID,24.0947,VALID,8,VALID,0.296484,
2011-03-12, 02:36:04,VALID,1001.75,VALID,0,INVALID,163.708,VALID,0,VALID,24.0734,VALID,8,VALID,0.448828,
2011-03-12, 02:37:04,VALID,1001.75,VALID,0,INVALID,163.708,VALID,0,VALID,24.0734,VALID,8,VALID,0.301172,
2011-03-12, 02:38:04,VALID,1001.73,VALID,0,INVALID,163.693,VALID,0,VALID,24.091,VALID,8,VALID,0.377344,
2011-03-12, 02:39:04,VALID,1001.77,VALID,0,INVALID,163.701,VALID,0,VALID,24.0716,VALID,8,VALID,0.495313,
2011-03-12, 02:40:04,VALID,1001.77,VALID,0,INVALID,163.701,VALID,0,VALID,24.091,VALID,8,VALID,0.357422,
2011-03-12, 02:41:04,VALID,1001.8,VALID,0,INVALID,163.701,VALID,0,VALID,24.1123,VALID,8,VALID,0.524219,
2011-03-12, 02:42:04,VALID,1001.77,VALID,0,INVALID,163.701,VALID,0,VALID,24.1123,VALID,8,VALID,0.530078,
2011-03-12, 02:43:04,VALID,1001.82,VALID,0,INVALID,163.701,VALID,0,VALID,24.0892,VALID,8,VALID,0.401172,
2011-03-12, 02:44:04,VALID,1001.78,VALID,0,INVALID,163.693,VALID,0,VALID,24.091,VALID,7,VALID,0.568359,
2011-03-12, 02:45:04,VALID,1001.8,VALID,0,INVALID,163.701,VALID,0,VALID,24.091,VALID,7,VALID,0.655078,
2011-03-12, 02:46:04,VALID,1001.79,VALID,0,INVALID,163.716,VALID,0,VALID,24.091,VALID,6,VALID,0.735156,
2011-03-12, 02:47:04,VALID,1001.79,VALID,0,INVALID,163.701,VALID,0,VALID,24.0716,VALID,355,VALID,0.510156,
2011-03-12, 02:48:04,VALID,1001.75,VALID,0,INVALID,163.701,VALID,0.100563,VALID,24.0716,VALID,355,VALID,0.707812,
2011-03-12, 02:49:04,VALID,1001.75,VALID,0,INVALID,163.708,VALID,0,VALID,24.0697,VALID,355,VALID,0.717578,
2011-03-12, 02:50:04,VALID,1001.79,VALID,0,INVALID,163.723,VALID,0,VALID,24.091,VALID,355,VALID,0.577344,
2011-03-12, 02:51:04,VALID,1001.8,VALID,0,INVALID,163.685,VALID,0.100563,VALID,24.0716,VALID,357,VALID,0.598437,
2011-03-12, 02:52:04,VALID,1001.82,VALID,0,INVALID,163.708,VALID,0.100563,VALID,24.0716,VALID,357,VALID,0.532812,
2011-03-12, 02:53:04,VALID,1001.85,VALID,0,INVALID,163.746,VALID,0,VALID,24.1123,VALID,357,VALID,0.460156,
2011-03-12, 02:54:04,VALID,1001.82,VALID,0,INVALID,163.708,VALID,0,VALID,24.0716,VALID,357,VALID,0.384375,
2011-03-12, 02:55:04,VALID,1001.85,VALID,0,INVALID,163.716,VALID,0,VALID,24.091,VALID,357,VALID,0.307813,
2011-03-12, 02:56:04,VALID,1001.83,VALID,0,INVALID,163.685,VALID,0,VALID,24.0697,VALID,357,VALID,0.460938,
2011-03-12, 02:57:04,VALID,1001.81,VALID,0,INVALID,163.723,VALID,0,VALID,24.091,VALID,357,VALID,0.546875,
2011-03-12, 02:58:04,VALID,1001.8,VALID,0,INVALID,163.701,VALID,0,VALID,24.0892,VALID,357,VALID,0.530859,
2011-03-12, 02:59:04,VALID,1001.76,VALID,0,INVALID,163.701,VALID,0,VALID,24.1105,VALID,357,VALID,0.385547,
2011-03-12, 03:00:04,VALID,1001.74,VALID,0,INVALID,163.701,VALID,0,VALID,24.1707,VALID,357,VALID,0.467578,
2011-03-12, 03:01:04,VALID,1001.74,VALID,0,INVALID,163.678,VALID,0,VALID,24.1494,VALID,357,VALID,0.332812,
2011-03-12, 03:02:04,VALID,1001.71,VALID,0,INVALID,163.693,VALID,0.100563,VALID,24.1689,VALID,357,VALID,0.299609,
2011-03-12, 03:03:04,VALID,1001.69,VALID,0,INVALID,163.723,VALID,0.100563,VALID,24.1671,VALID,357,VALID,0.466797,
2011-03-12, 03:04:04,VALID,1001.73,VALID,0,INVALID,163.693,VALID,0.100563,VALID,24.1884,VALID,357,VALID,0.435937,
2011-03-12, 03:05:04,VALID,1001.73,VALID,0,INVALID,163.708,VALID,0,VALID,24.2097,VALID,357,VALID,0.502734,
2011-03-12, 03:06:04,VALID,1001.71,VALID,0,INVALID,163.731,VALID,0,VALID,24.2291,VALID,357,VALID,0.373437,
2011-03-12, 03:07:04,VALID,1001.68,VALID,0,INVALID,163.716,VALID,0,VALID,24.2078,VALID,357,VALID,0.142188,
2011-03-12, 03:08:04,VALID,1001.67,VALID,0,INVALID,163.678,VALID,0,VALID,24.1884,VALID,357,VALID,0.408203,
2011-03-12, 03:09:04,VALID,1001.7,VALID,0,INVALID,163.685,VALID,0,VALID,24.2291,VALID,357,VALID,0.306641,
2011-03-12, 03:10:04,VALID,1001.66,VALID,0,INVALID,163.685,VALID,0.100563,VALID,24.1865,VALID,357,VALID,0.379687,
2011-03-12, 03:11:04,VALID,1001.64,VALID,0,INVALID,163.693,VALID,0,VALID,24.2273,VALID,357,VALID,0.449219,
2011-03-12, 03:12:04,VALID,1001.63,VALID,0,INVALID,163.685,VALID,0,VALID,24.2273,VALID,12,VALID,0.565234,
2011-03-12, 03:13:04,VALID,1001.63,VALID,0,INVALID,163.693,VALID,0,VALID,24.2662,VALID,12,VALID,0.528125,
2011-03-12, 03:14:04,VALID,1001.63,VALID,0,INVALID,163.685,VALID,0,VALID,24.2875,VALID,15,VALID,0.780078,
2011-03-12, 03:15:04,VALID,1001.59,VALID,0,INVALID,163.678,VALID,0,VALID,24.2662,VALID,15,VALID,0.563281,
2011-03-12, 03:16:04,VALID,1001.6,VALID,0,INVALID,163.701,VALID,0,VALID,24.2857,VALID,14,VALID,0.596094,
2011-03-12, 03:17:04,VALID,1001.56,VALID,0,INVALID,163.701,VALID,0,VALID,24.2662,VALID,14,VALID,0.658594,
2011-03-12, 03:18:04,VALID,1001.56,VALID,0,INVALID,163.685,VALID,0,VALID,24.2662,VALID,14,VALID,0.446875,
2011-03-12, 03:19:04,VALID,1001.53,VALID,0,INVALID,163.662,VALID,0,VALID,24.2857,VALID,14,VALID,0.308203,
2011-03-12, 03:20:04,VALID,1001.49,VALID,0,INVALID,163.685,VALID,0,VALID,24.2875,VALID,14,VALID,0.347656,
2011-03-12, 03:21:04,VALID,1001.46,VALID,0,INVALID,163.693,VALID,0,VALID,24.2662,VALID,14,VALID,0.505078,
2011-03-12, 03:22:04,VALID,1001.42,VALID,0,INVALID,163.693,VALID,0,VALID,24.2662,VALID,14,VALID,0.411328,
2011-03-12, 03:23:04,VALID,1001.38,VALID,0,INVALID,163.678,VALID,0,VALID,24.2468,VALID,14,VALID,0.471094,
2011-03-12, 03:24:04,VALID,1001.38,VALID,0,INVALID,163.678,VALID,0,VALID,24.2486,VALID,14,VALID,0.467578,
2011-03-12, 03:25:04,VALID,1001.38,VALID,0,INVALID,163.662,VALID,0,VALID,24.2468,VALID,14,VALID,0.46875,
2011-03-12, 03:26:04,VALID,1001.38,VALID,0,INVALID,163.685,VALID,0,VALID,24.2486,VALID,14,VALID,0.416406,
2011-03-12, 03:27:04,VALID,1001.38,VALID,0,INVALID,163.685,VALID,0,VALID,24.2273,VALID,14,VALID,0.585938,
2011-03-12, 03:28:04,VALID,1001.38,VALID,0,INVALID,163.708,VALID,0,VALID,24.2486,VALID,14,VALID,0.440625,
2011-03-12, 03:29:04,VALID,1001.38,VALID,0,INVALID,163.693,VALID,0,VALID,24.2273,VALID,14,VALID,0.426562,
2011-03-12, 03:30:04,VALID,1001.39,VALID,0,INVALID,163.716,VALID,0,VALID,24.1865,VALID,14,VALID,0.334766,
2011-03-12, 03:31:04,VALID,1001.41,VALID,0,INVALID,163.716,VALID,0,VALID,24.2291,VALID,14,VALID,0.466797,
2011-03-12, 03:32:04,VALID,1001.44,VALID,0,INVALID,163.701,VALID,0,VALID,24.2097,VALID,14,VALID,0.407031,
2011-03-12, 03:33:04,VALID,1001.46,VALID,0,INVALID,163.693,VALID,0,VALID,24.1884,VALID,13,VALID,0.542969,
2011-03-12, 03:34:04,VALID,1001.5,VALID,0,INVALID,163.693,VALID,0,VALID,24.1884,VALID,13,VALID,0.316016,
2011-03-12, 03:35:04,VALID,1001.53,VALID,0,INVALID,163.716,VALID,0,VALID,24.1884,VALID,13,VALID,0.540625,
2011-03-12, 03:36:04,VALID,1001.55,VALID,0,INVALID,163.723,VALID,0,VALID,24.1902,VALID,353,VALID,0.389062,
2011-03-12, 03:37:04,VALID,1001.59,VALID,0,INVALID,163.701,VALID,0,VALID,24.1494,VALID,353,VALID,0.551562,
2011-03-12, 03:38:04,VALID,1001.62,VALID,0,INVALID,163.701,VALID,0,VALID,24.1689,VALID,353,VALID,0.274219,
2011-03-12, 03:39:04,VALID,1001.64,VALID,0,INVALID,163.685,VALID,0,VALID,24.1689,VALID,353,VALID,0.164453,
2011-03-12, 03:40:04,VALID,1001.65,VALID,0,INVALID,163.701,VALID,0,VALID,24.1689,VALID,353,VALID,0.136328,
2011-03-12, 03:41:04,VALID,1001.65,VALID,0,INVALID,163.701,VALID,0,VALID,24.1689,VALID,353,VALID,0,
2011-03-12, 03:42:04,VALID,1001.7,VALID,0,INVALID,163.67,VALID,0,VALID,24.1865,VALID,4,VALID,0.544141,
2011-03-12, 03:43:04,VALID,1001.7,VALID,0,INVALID,163.708,VALID,0,VALID,24.2468,VALID,12,VALID,0.573438,